Regional Weather Roundup
Issued by NWS Little Rock, AR

Home | Current Version | Previous Version | Graphics & Text | Print | Product List | Glossary On
Versions: 1 2 3 4 5 6 7 8 9 10 11 12 13 14 15 16 17 18 19 20 21 22 23 24 25 26 27 28 29 30 31 32 33 34 35 36 37 38 39 40 41 42 43 44 45 46 47 48 49 50
000
ASUS44 KLZK 230615
RWRLZK

WEATHER ROUNDUP FOR ARKANSAS
NATIONAL WEATHER SERVICE LITTLE ROCK AR
100 AM CDT WED MAY 23 2018

NOTE: "FAIR" INDICATES FEW OR NO CLOUDS BELOW 12,000 FEET WITH NO
SIGNIFICANT WEATHER AND/OR OBSTRUCTIONS TO VISIBILITY.

ARZ001-003-010-029-230700-
NORTHWEST ARKANSAS

CITY           SKY/WX    TMP DP  RH WIND       PRES   REMARKS
FAYETTEVILLE   PTCLDY    63  63 100 S3        30.04F FOG
6HR MIN TEMP:  63; 6HR MAX TEMP:  73;

FORT SMITH     MOCLDY    72  69  90 NE6       30.01R
6HR MIN TEMP:  72; 6HR MAX TEMP:  80;

HARRISON       CLOUDY    68  67  96 SE3       30.06S
6HR MIN TEMP:  67; 6HR MAX TEMP:  74;

BENTONVILLE    CLEAR     69  66  90 SE5       30.06F
6HR MIN TEMP:  69; 6HR MAX TEMP:  78;

ROGERS         CLOUDY    68  65  90 SE3       30.05F
6HR MIN TEMP:  68; 6HR MAX TEMP:  79;

SILOAM SPGS    CLEAR     67  66  97 SE5       30.04F
6HR MIN TEMP:  67; 6HR MAX TEMP:  75;

HIGHFILL       PTCLDY    68  64  87 CALM      30.04F
6HR MIN TEMP:  66; 6HR MAX TEMP:  77;

$$

ARZ004-005-016-230700-
NORTH CENTRAL ARKANSAS

CITY           SKY/WX    TMP DP  RH WIND       PRES   REMARKS
BATESVILLE     PTCLDY    69  67  93 NW3       30.04S
6HR MIN TEMP:  68; 6HR MAX TEMP:  78;

FLIPPIN        FOG       68  68 100 CALM      30.04S VSB 3/4
6HR MIN TEMP:  68; 6HR MAX TEMP:  76;

$$

ARZ040-041-230700-
WEST CENTRAL ARKANSAS

CITY           SKY/WX    TMP DP  RH WIND       PRES   REMARKS
MENA           NOT AVBL
MOUNT IDA      MOCLDY    69  69 100 CALM      30.00F FOG
6HR MIN TEMP:  69; 6HR MAX TEMP:  76;

$$

ARZ009-017-025-026-028-230700-
NORTHEAST ARKANSAS

CITY           SKY/WX    TMP DP  RH WIND       PRES   REMARKS
CORNING        MOCLDY    75  75 100 CALM      30.04S
JONESBORO      FAIR      71  71 100 CALM      30.03S
6HR MIN TEMP:  71; 6HR MAX TEMP:  83;

NEWPORT        FAIR      74  71  91 S5        30.04R
6HR MIN TEMP:  74; 6HR MAX TEMP:  83;

WALNUT RIDGE     N/A     75  72  90 CALM      30.03S
6HR MIN TEMP:  75; 6HR MAX TEMP:  84;

BLYTHEVILLE    FAIR      75  70  84 CALM      30.03S
6HR MIN TEMP:  74; 6HR MAX TEMP:  85;

$$

ARZ022-023-033-042-044-230700-
CENTRAL ARKANSAS

CITY           SKY/WX    TMP DP  RH WIND       PRES   REMARKS
LITTLE ROCK    CLOUDY    72  71  97 CALM      30.01F
6HR MIN TEMP:  71; 6HR MAX TEMP:  77;

N LITTLE ROCK    N/A     71  69  95 CALM      29.98S
6HR MIN TEMP:  70; 6HR MAX TEMP:  76;

JACKSONVILLE   MOCLDY    72  72 100 CALM      30.01S
6HR MIN TEMP:  71; 6HR MAX TEMP:  79;

CONWAY         CLOUDY    72  72 100 CALM      30.01R FOG
SEARCY         FAIR      71  71 100 MISG      30.02F
6HR MIN TEMP:  70; 6HR MAX TEMP:  82;

HOT SPRINGS    MOCLDY    72  71  97 CALM      30.02F
6HR MIN TEMP:  72; 6HR MAX TEMP:  80;

RUSSELLVILLE   PTCLDY    69  68  96 CALM      30.00F
6HR MIN TEMP:  69; 6HR MAX TEMP:  81;

CLINTON        FAIR      66  66 100 CALM      30.03F FOG
$$

ARZ036-230700-
EAST ARKANSAS

CITY           SKY/WX    TMP DP  RH WIND       PRES   REMARKS
WEST MEMPHIS   FAIR      71  71 100 CALM      30.02S
6HR MIN TEMP:  71; 6HR MAX TEMP:  79; 6HR PCP: TRACE;

$$

ARZ050-053-066-070-073-230700-
SOUTHWEST ARKANSAS

CITY           SKY/WX    TMP DP  RH WIND       PRES   REMARKS
ARKADELPHIA    FOG       70  68  94 CALM      30.02S VSB 1/2
6HR MIN TEMP:  70; 6HR MAX TEMP:  79;

CAMDEN         FAIR      68  66  94 CALM      30.01F FOG
TEXARKANA      PTCLDY    69  69 100 SE6       30.01F
6HR MIN TEMP:  68; 6HR MAX TEMP:  72; 6HR PCP:  0.35;

EL DORADO      FAIR      70  70 100 CALM      30.02R
6HR MIN TEMP:  70; 6HR MAX TEMP:  83;

DE QUEEN       MOCLDY    71  70  96 CALM      29.99F
6HR MIN TEMP:  70; 6HR MAX TEMP:  77; 6HR PCP: TRACE;

$$

ARZ056-057-069-230700-
SOUTHEAST ARKANSAS

CITY           SKY/WX    TMP DP  RH WIND       PRES   REMARKS
PINE BLUFF     FAIR      71  68  90 CALM      30.01F
6HR MIN TEMP:  71; 6HR MAX TEMP:  84; 6HR PCP:  0.11;

STUTTGART      FAIR      76  69  79 CALM      30.02S
6HR MIN TEMP:  76; 6HR MAX TEMP:  84;

MONTICELLO     FAIR      72  69  90 CALM      30.00F
6HR MIN TEMP:  71; 6HR MAX TEMP:  81; 6HR PCP:  0.01;


$$





USA.gov is the U.S. government's official web portal to all federal, state and local government web resources and services.